When you browse on this site, cookies collect data to enhance your experience and personalize the content and advertising you see.
Visit our Privacy Policy to learn more. By continuing to use the site, you agree to this use of cookies and data.
  • Em Portugal
  • Lista de países
  • Para 7 dias
  • Temperatura da água
  • Mapa do tempo
  • Widgets de tempo
  • user-avatar
    Iniciar Sessão

    Previsão horária em Kitzbuel

    Hoje, 21 Agosto, Quarta-feira

    Tempo Temperatura Precipitação Vento Pressão Humidade
    00:00 +13°C° 0.8 mm 2 m/s 683 mmHg 99%
    01:00 +13°C° 0.8 mm 2 m/s 683 mmHg 99%
    02:00 +12°C° 1.7 mm 2 m/s 683 mmHg 99%
    03:00 +12°C° 1.7 mm 1 m/s 683 mmHg 99%
    04:00 +12°C° 1.7 mm 1 m/s 683 mmHg 99%
    05:00 +12°C° 1.1 mm 1 m/s 683 mmHg 98%
    06:00 +12°C° 1.1 mm 1 m/s 683 mmHg 98%
    07:00 +11°C° 1.1 mm 0 m/s 683 mmHg 98%
    08:00 +12°C° 0.1 mm 1 m/s 684 mmHg 96%
    09:00 +13°C° 0.1 mm 1 m/s 684 mmHg 95%
    10:00 +14°C° 0.1 mm 1 m/s 684 mmHg 93%
    11:00 +14°C° 0.1 mm 1 m/s 684 mmHg 89%
    12:00 +15°C° 0.1 mm 1 m/s 684 mmHg 86%
    13:00 +16°C° 0.1 mm 1 m/s 684 mmHg 82%
    14:00 +16°C° 0.1 mm 1 m/s 683 mmHg 81%
    15:00 +18°C° 0.1 mm 1 m/s 683 mmHg 80%
    16:00 +18°C° 0.1 mm 1 m/s 683 mmHg 78%
    17:00 +16°C° 0.1 mm 1 m/s 683 mmHg 82%
    18:00 +16°C° 0.1 mm 1 m/s 683 mmHg 86%
    19:00 +15°C° 0.1 mm 1 m/s 683 mmHg 90%
    20:00 +14°C° 0.1 mm 1 m/s 683 mmHg 92%
    21:00 +13°C° 0.1 mm 0 m/s 683 mmHg 94%
    22:00 +12°C° 0.1 mm 0 m/s 683 mmHg 96%
    23:00 +12°C° 0.1 mm 0 m/s 683 mmHg 96%

    Amanhã, 22 Agosto, Quinta-feira

    Tempo Temperatura Precipitação Vento Pressão Humidade
    00:00 +12°C° 0.1 mm 0 m/s 683 mmHg 95%
    01:00 +11°C° 0.1 mm 0 m/s 682 mmHg 95%
    02:00 +11°C° 0.1 mm 0 m/s 682 mmHg 95%
    03:00 +11°C° 0.1 mm 0 m/s 682 mmHg 95%
    04:00 +11°C° 0.1 mm 0 m/s 681 mmHg 95%
    05:00 +12°C° 0 mm 0 m/s 682 mmHg 93%
    06:00 +13°C° 0 mm 0 m/s 682 mmHg 92%
    07:00 +14°C° 0 mm 0 m/s 683 mmHg 91%
    08:00 +16°C° 0.1 mm 0 m/s 683 mmHg 84%
    09:00 +20°C° 0.1 mm 1 m/s 683 mmHg 78%
    10:00 +21°C° 0.1 mm 1 m/s 684 mmHg 71%
    11:00 +22°C° 0.2 mm 1 m/s 684 mmHg 69%
    12:00 +23°C° 0.2 mm 1 m/s 684 mmHg 67%
    13:00 +24°C° 0.2 mm 2 m/s 684 mmHg 64%
    14:00 +23°C° 0.8 mm 2 m/s 683 mmHg 69%
    15:00 +23°C° 0.8 mm 2 m/s 683 mmHg 73%
    16:00 +21°C° 0.8 mm 2 m/s 683 mmHg 77%
    17:00 +21°C° 0.5 mm 1 m/s 683 mmHg 83%
    18:00 +19°C° 0.5 mm 1 m/s 683 mmHg 89%
    19:00 +18°C° 0.5 mm 1 m/s 682 mmHg 95%
    20:00 +15°C° 0.2 mm 0 m/s 683 mmHg 95%
    21:00 +14°C° 0.2 mm 0 m/s 683 mmHg 95%
    22:00 +14°C° 0.2 mm 0 m/s 683 mmHg 95%
    23:00 +13°C° 0 mm 0 m/s 683 mmHg 94%

    Depois de amanhã, 23 Agosto, Sexta-feira

    Tempo Temperatura Precipitação Vento Pressão Humidade
    00:00 +13°C° 0 mm 0 m/s 683 mmHg 94%
    01:00 +13°C° 0 mm 0 m/s 683 mmHg 93%
    02:00 +13°C° 0 mm 0 m/s 683 mmHg 93%
    03:00 +13°C° 0 mm 0 m/s 682 mmHg 93%
    04:00 +14°C° 0 mm 1 m/s 682 mmHg 93%
    05:00 +14°C° 0 mm 0 m/s 682 mmHg 91%
    06:00 +15°C° 0 mm 0 m/s 683 mmHg 90%
    07:00 +15°C° 0 mm 0 m/s 683 mmHg 88%
    08:00 +17°C° 0.1 mm 0 m/s 683 mmHg 82%
    09:00 +21°C° 0.1 mm 1 m/s 683 mmHg 75%
    10:00 +23°C° 0.1 mm 1 m/s 684 mmHg 68%
    11:00 +24°C° 0.5 mm 1 m/s 684 mmHg 68%
    12:00 +24°C° 0.5 mm 1 m/s 684 mmHg 68%
    13:00 +25°C° 0.5 mm 1 m/s 683 mmHg 67%
    14:00 +24°C° 0.8 mm 1 m/s 683 mmHg 71%
    15:00 +23°C° 0.8 mm 1 m/s 683 mmHg 75%
    16:00 +23°C° 0.8 mm 1 m/s 682 mmHg 79%
    17:00 +22°C° 0.6 mm 1 m/s 682 mmHg 84%
    18:00 +20°C° 0.6 mm 1 m/s 682 mmHg 88%
    19:00 +19°C° 0.6 mm 1 m/s 682 mmHg 93%
    20:00 +18°C° 0.3 mm 1 m/s 682 mmHg 92%
    21:00 +18°C° 0.3 mm 1 m/s 682 mmHg 92%
    22:00 +16°C° 0.3 mm 1 m/s 682 mmHg 92%
    23:00 +16°C° 0 mm 1 m/s 681 mmHg 91%

    24 Agosto, Sábado

    Tempo Temperatura Precipitação Vento Pressão Humidade
    00:00 +15°C° 0 mm 1 m/s 681 mmHg 90%
    01:00 +15°C° 0 mm 1 m/s 681 mmHg 90%
    02:00 +15°C° 0 mm 1 m/s 681 mmHg 89%
    03:00 +15°C° 0 mm 1 m/s 681 mmHg 88%
    04:00 +15°C° 0 mm 1 m/s 681 mmHg 88%
    05:00 +15°C° 0 mm 1 m/s 681 mmHg 86%
    06:00 +16°C° 0 mm 1 m/s 681 mmHg 85%
    07:00 +18°C° 0 mm 1 m/s 681 mmHg 83%
    08:00 +20°C° 0 mm 1 m/s 682 mmHg 74%
    09:00 +23°C° 0 mm 1 m/s 682 mmHg 66%
    10:00 +23°C° 0 mm 0 m/s 682 mmHg 57%
    11:00 +25°C° 0.2 mm 1 m/s 682 mmHg 58%
    12:00 +26°C° 0.2 mm 1 m/s 682 mmHg 59%
    13:00 +26°C° 0.2 mm 1 m/s 682 mmHg 60%
    14:00 +25°C° 0.8 mm 1 m/s 681 mmHg 66%
    15:00 +24°C° 0.8 mm 1 m/s 681 mmHg 73%
    16:00 +23°C° 0.8 mm 1 m/s 681 mmHg 80%
    17:00 +22°C° 1.1 mm 1 m/s 680 mmHg 84%
    18:00 +20°C° 1.1 mm 1 m/s 680 mmHg 88%
    19:00 +18°C° 1.1 mm 1 m/s 680 mmHg 92%
    20:00 +18°C° 0.1 mm 1 m/s 680 mmHg 91%
    21:00 +16°C° 0.1 mm 1 m/s 680 mmHg 89%
    22:00 +16°C° 0.1 mm 2 m/s 680 mmHg 88%
    23:00 +16°C° 0 mm 2 m/s 680 mmHg 88%

    25 Agosto, Domingo

    Tempo Temperatura Precipitação Vento Pressão Humidade
    00:00 +15°C° 0 mm 1 m/s 680 mmHg 87%
    01:00 +15°C° 0 mm 1 m/s 679 mmHg 87%
    02:00 +15°C° 0 mm 1 m/s 679 mmHg 86%
    03:00 +15°C° 0 mm 1 m/s 679 mmHg 86%
    04:00 +14°C° 0 mm 1 m/s 679 mmHg 85%
    05:00 +16°C° 0 mm 1 m/s 680 mmHg 83%
    06:00 +18°C° 0 mm 1 m/s 680 mmHg 82%
    07:00 +19°C° 0 mm 1 m/s 680 mmHg 80%
    08:00 +21°C° 0 mm 1 m/s 681 mmHg 72%
    09:00 +23°C° 0 mm 1 m/s 681 mmHg 64%
    10:00 +26°C° 0 mm 1 m/s 682 mmHg 55%
    11:00 +26°C° 0.4 mm 1 m/s 682 mmHg 55%
    12:00 +26°C° 0.4 mm 1 m/s 681 mmHg 55%
    13:00 +27°C° 0.4 mm 1 m/s 681 mmHg 54%
    14:00 +26°C° 1.4 mm 1 m/s 681 mmHg 63%
    15:00 +25°C° 1.4 mm 1 m/s 681 mmHg 73%
    16:00 +24°C° 1.4 mm 1 m/s 680 mmHg 82%
    17:00 +22°C° 1.5 mm 1 m/s 680 mmHg 85%
    18:00 +21°C° 1.5 mm 1 m/s 680 mmHg 88%
    19:00 +19°C° 1.5 mm 1 m/s 680 mmHg 92%
    20:00 +18°C° 0.2 mm 1 m/s 680 mmHg 92%
    21:00 +18°C° 0.2 mm 1 m/s 680 mmHg 92%
    22:00 +16°C° 0.2 mm 1 m/s 681 mmHg 92%
    23:00 +16°C° 0 mm 1 m/s 681 mmHg 91%

    26 Agosto, Segunda-feira

    Tempo Temperatura Precipitação Vento Pressão Humidade
    00:00 +15°C° 0 mm 1 m/s 681 mmHg 91%
    01:00 +15°C° 0 mm 1 m/s 681 mmHg 91%
    02:00 +15°C° 0 mm 1 m/s 680 mmHg 91%
    03:00 +15°C° 0 mm 1 m/s 680 mmHg 91%
    04:00 +14°C° 0 mm 1 m/s 680 mmHg 92%
    05:00 +15°C° 0 mm 1 m/s 681 mmHg 90%
    06:00 +16°C° 0 mm 1 m/s 681 mmHg 89%
    07:00 +18°C° 0 mm 1 m/s 681 mmHg 87%
    08:00 +20°C° 0.1 mm 1 m/s 682 mmHg 79%
    09:00 +23°C° 0.1 mm 1 m/s 683 mmHg 70%
    10:00 +25°C° 0.1 mm 1 m/s 683 mmHg 62%
    11:00 +25°C° 0.3 mm 1 m/s 683 mmHg 57%
    12:00 +26°C° 0.3 mm 1 m/s 683 mmHg 53%
    13:00 +27°C° 0.3 mm 1 m/s 683 mmHg 48%
    14:00 +26°C° 0.1 mm 1 m/s 683 mmHg 50%
    15:00 +26°C° 0.1 mm 2 m/s 683 mmHg 51%
    16:00 +25°C° 0.1 mm 2 m/s 683 mmHg 53%
    17:00 +23°C° 0 mm 1 m/s 682 mmHg 65%
    18:00 +21°C° 0 mm 1 m/s 682 mmHg 77%
    19:00 +16°C° 0 mm 0 m/s 682 mmHg 89%
    20:00 +18°C° 0 mm 1 m/s 682 mmHg 89%
    21:00 +16°C° 0 mm 1 m/s 682 mmHg 90%
    22:00 +16°C° 0 mm 1 m/s 682 mmHg 90%
    23:00 +16°C° 0 mm 1 m/s 682 mmHg 90%
    Mostrar mais